Location: Clanezzo
(45.7500°N, 9.6000°E)
Time: 01:08:59
(UTC+00:00)

Cosmos 1833 Rocket - Pass Details

Date: 12 May 2021
Orbit: 831 x 841 km, 71.0° (Epoch: 23 June)

Event Time Altitude Azimuth Distance (km) Brightness Sun altitude
Rises 20:40:00 0° 331° (NNW) 3,405 7.5 -16.6°
Reaches altitude 10° 20:42:28 10° 328° (NNW) 2,467 6.4 -16.9°
Maximum altitude 20:48:03 63° 249° (WSW) 938 3.0 -17.5°
Enters shadow 20:51:20 25° 176° (S) 1,642 3.7 -17.8°
